Torna al catalogo

HULIANWANG DIGUI-73

AttivoComunicazioniLEO
NORAD 65305·PAYLOAD·🇨🇳 China

Lanciato Aug 25, 2025 da Wenchang Space Launch Site

Loading…

Prossimi Passaggi (prossime 24 ore)

TLE

AggiornatoSource: Space-Track

Epoca: Sep 14, 2026, 12:37 UTC

1 65305U 25187A   26257.52580325 -.00000093  00000-0  67916-4 0  9990
2 65305  50.0037 245.4739 0000660 335.8423  24.2418 13.29326314 51584

Traccia HULIANWANG DIGUI-73 in tempo reale con AllMySat

Download on the App Store